Location: Melbourne
(37.8120°S, 144.9677°E)
Time: 16:37:03
(UTC+10:00)

Daily predictions for brighter satellites

Satellite Brightness Start Highest point End
(mag) Time Altitude Azimuth Time Altitude Azimuth Time Altitude Azimuth
CORIOLIS 4.1 18:41:56 10° SSE 18:47:22 73° ENE 18:52:43 10° N
Cosmos 921 Rocket 3.2 18:44:46 10° N 18:48:53 49° ENE 18:53:08 10° SSE
ATLAS 5 CENTAUR R/B 4.1 18:46:40 10° NNW 18:49:31 14° NNE 18:54:28 10° NE
Cosmos 1437 3.4 18:47:57 10° NNE 18:51:01 35° E 18:54:08 10° SSE
Meteor 1-29 3.6 18:48:08 10° N 18:51:34 62° W 18:55:02 10° SSW
Cosmos 1484 Rocket 3.2 18:52:11 10° SSE 18:55:44 38° E 18:59:15 10° NNE
Cosmos 1842 Rocket 3.6 18:51:56 10° S 18:56:24 87° W 19:00:46 10° N
SPOT 3 Rocket 4.2 18:51:46 10° S 18:56:55 63° WSW 19:02:02 10° NNW
Blok-2BL 3.4 18:55:05 10° S 18:57:02 29° SE 18:59:20 10° ENE
Cosmos 1707 2.7 18:53:30 10° N 18:57:26 85° E 19:01:26 10° S
SL-27 R/B 3.2 18:55:05 10° S 18:58:34 36° ESE 19:01:58 10° NE
Cosmos 2251 Rocket 4.3 18:55:01 10° SSW 19:00:15 57° WNW 19:05:24 10° N
Cosmos 1076 Rocket 4.3 19:00:25 10° NNE 19:04:17 30° E 19:08:10 10° SSE
APEX 2.9 19:02:58 10° N 19:06:05 42° ENE 19:08:50 10° SE
Cosmos 1437 Rocket 3.0 19:04:04 10° S 19:08:12 56° E 19:12:17 10° NNE
Cosmos 1634 Rocket 4.0 19:02:34 10° S 19:09:00 73° E 19:15:19 10° NNE
YAOGAN 1 3.8 19:04:59 10° S 19:09:13 47° WSW 19:13:23 10° NW
Geosat 4.1 19:04:07 10° SSE 19:09:14 87° WSW 19:14:17 10° NNW
SeaSat 1 4.1 19:06:30 10° N 19:11:02 36° WNW 19:15:38 10° SW
Cosmos 1818 3.9 19:06:22 10° N 19:11:24 43° ENE 19:16:29 10° SE
MSX 3.8 19:05:41 10° SSE 19:11:29 73° ENE 19:17:13 10° N
COSMOS 2406 3.4 19:09:23 10° SSW 19:15:15 80° WNW 19:21:02 10° NNE
ALOS 4.3 19:14:15 10° ESE 19:14:20 10° ESE 19:14:20 10° ESE
Cosmos 2278 Rocket 2.5 19:11:07 10° N 19:16:27 44° ENE 19:21:50 10° SE
FREGAT/IRIS 3.7 19:16:10 10° SE 19:18:57 26° E 19:21:40 10° NNE
CZ-3B DEB 4.1 19:11:30 10° W 19:19:52 28° SW 19:23:40 10° SSE
BREEZE-M DEB 3.3 19:21:54 10° SW 19:24:04 70° SE 19:24:55 32° ENE
Meteor 2-1 Rocket 4.2 19:19:18 10° S 19:24:54 69° E 19:30:29 10° NNE
Resurs 01 Rocket 2.6 19:26:15 10° SE 19:30:05 27° E 19:33:12 13° NNE
Spot 2 Rocket 4.3 19:25:45 10° SE 19:30:11 28° E 19:34:33 10° NNE
Meteor 1-16 Rocket 4.4 19:25:48 10° SSW 19:31:30 75° W 19:36:56 10° N
Cosmos 405 3.2 19:30:21 10° SSW 19:33:57 71° W 19:37:29 10° N
Cosmos 1408 Rocket 3.5 19:33:03 10° N 19:37:20 65° E 19:41:42 10° SSE
Lacrosse 5 rocket 3.0 19:37:09 10° SSW 19:40:14 20° SE 19:41:24 18° ESE
Cosmos 2082 Rocket 3.5 19:36:09 10° S 19:40:37 22° SE 19:42:09 20° ESE
COSMOS 2487 3.5 19:39:09 10° S 19:42:24 29° ESE 19:42:30 29° ESE
OAO 2 Rocket 3.9 19:38:12 10° W 19:42:56 45° NNW 19:45:24 25° NE
ASTEX 1 3.7 19:38:45 10° N 19:43:39 72° W 19:48:39 10° S
Meteor 1-24 Rocket 4.0 19:38:32 10° NNW 19:43:48 66° W 19:49:14 10° S
METEOR-M 4.3 19:39:42 10° SSE 19:44:57 49° E 19:50:08 10° N
SAR-Lupe-1 4.0 19:45:13 10° SSE 19:48:52 88° E 19:52:28 10° NNW
In-Cosmos 22 4.1 19:47:48 10° N 19:53:22 74° E 19:58:51 10° SSE
Cosmos 1844 Rocket 4.2 19:51:08 10° NW 19:56:25 39° WSW 20:01:46 10° S
SL-19 R/B 4.3 19:54:02 10° SSE 20:00:02 87° WSW 20:05:40 10° NNW
FENGYUN 3A 4.3 19:57:04 10° SSE 20:01:25 33° E 20:01:25 33° E
Longmarch 3A Rocket 4.3 19:37:21 10° WNW 20:03:18 35° N 20:06:21 26° NE
USA 234 3.6 19:57:39 10° SE 20:04:12 67° SW 20:10:44 10° WNW
Cosmos 2228 Rocket 3.1 19:59:46 10° S 20:04:23 60° E 20:05:24 47° NE
Cosmos 1743 Rocket 3.4 20:06:26 43° NNE 20:07:43 65° E 20:12:05 10° SSE
Nimbus 7 Rocket 4.3 20:07:55 22° NNE 20:11:51 87° ESE 20:17:48 10° SSW
deb Chang Zheng 4 3.5 20:11:57 58° NE 20:12:43 75° ESE 20:17:10 10° S
Cosmos 2221 4.3 20:09:29 10° SSW 20:13:29 33° W 20:17:27 10° NNW
CZ-4B R/B 4.3 20:18:43 36° ESE 20:18:43 36° ESE 20:23:07 10° S
DELTA 2 R/B (1) 4.4 20:14:28 10° W 20:19:41 40° NNW 20:21:08 34° N
SJ-6B 4.4 20:17:30 10° S 20:21:00 34° WSW 20:24:30 10° NW
Cosmos 1271 Rocket 4.1 20:20:02 10° S 20:22:22 30° SSE 20:22:22 30° SSE
Cosmos 2056 Rocket 4.1 20:19:56 10° NNW 20:25:09 59° WSW 20:30:23 10° S
Cosmos 1833 Rocket 3.2 20:20:12 10° S 20:25:22 40° ESE 20:25:22 40° ESE
Cosmos 44 Rocket 3.4 20:28:35 10° SW 20:33:29 72° WNW 20:33:57 67° NNW
Cosmos 1515 Rocket 3.9 20:29:19 10° S 20:32:51 56° S 20:32:51 56° S
Cosmos 1151 Rocket 4.4 20:31:37 10° S 20:34:03 30° SSE 20:34:03 30° SSE
GP-B 4.2 20:33:38 20° NNW 20:36:26 44° W 20:40:46 10° SSW
Cosmos 1190 Rocket 4.0 20:32:09 10° SSW 20:37:25 76° WNW 20:38:03 66° NNW
NOSS 3-1 (C) 3.5 20:32:50 10° SW 20:39:07 66° WNW 20:40:27 51° N
SL-19 R/B 4.4 20:43:01 62° NNE 20:44:10 88° WNW 20:50:31 10° SSW
Helios 1A 3.9 20:41:09 10° S 20:45:14 47° WSW 20:46:06 41° WNW
NOSS 3-1 (A) 3.3 20:39:23 10° SW 20:45:48 79° WNW 20:46:26 70° N
ALOS 2.8 20:48:54 10° S 20:52:53 56° SSW 20:52:53 56° SSW
Cosmos 407 Rocket 3.9 20:53:40 10° SSW 20:58:39 58° W 20:58:39 58° W
ATLAS 2AS CENTAUR R/B 3.2 20:53:54 10° SSW 20:58:56 41° SSE 20:58:56 41° SSE
Cosmos 2278 Rocket 4.3 20:56:02 10° WNW 21:00:42 26° WSW 21:05:25 10° S
Timation 2 Rocket 4.2 20:54:55 10° SSW 21:01:29 64° WNW 21:02:16 59° NW
BREEZE-M DEB (TANK) 4.3 20:33:33 10° NW 21:01:42 73° NE 21:03:22 58° E
Resurs 01 Rocket 3.7 21:02:42 10° SSW 21:06:26 26° WSW 21:10:09 10° NW
Lacrosse 5 3.8 21:04:37 10° SSW 21:07:27 21° SSE 21:07:27 21° SSE
Lacrosse 5 rocket 3.8 21:15:37 10° SW 21:17:09 22° SW 21:17:09 22° SW
Cosmos 2082 Rocket 3.1 21:19:25 10° SSW 21:24:02 47° WSW 21:24:02 47° WSW
